Location: Newark
(12.4436°N, 0.6167°W)
Time: 16:03:18
(UTC+00:00)

deb Explorer IX - Pass Details

Date: 13 December 2019
Orbit: 548 x 1101 km, 38.8° (Epoch: 26 January)

Event Time Altitude Azimuth Distance (km) Brightness Sun altitude
Rises 20:35:16 0° 324° (NW) 3,735 ? -41.1°
Enters shadow 20:36:15 - 327° (NNW) 3,436 ? -41.3°
Reaches altitude 10° 20:38:18 10° 335° (NNW) 2,848 - -41.8°
Maximum altitude 20:44:14 28° 33° (NNE) 1,899 - -43.2°
Drops below altitude 10° 20:50:20 10° 89° (E) 2,947 - -44.6°
Sets 20:53:31 0° 101° (E) 3,887 - -45.3°
